User: anonymous   Login
Location: ????????
(54.8751°N, 38.5756°E)
Time: 01:50:59
(UTC+00:00)
Language:

CZ-2C R/B - Orbit

View from above orbital plane
View from above orbital plane
View from above satellite
View from above satellite

Ground track
Ground track

The orbit data is extracted from the following two-line orbital elements,

1 36089U 09061B   24167.48892097  .00000673  00000-0  17466-3 0  9992
2 36089  98.3584 133.3716 0080877 120.5503 240.3704 14.51021948771915
Epoch (UTC): 15 June 2024 11:44:02
Eccentricity: 0.0080877
inclination: 98.3584°
perigee height: 665 km
apogee height: 780 km
right ascension of ascending node: 133.3716°
argument of perigee: 120.5503°
revolutions per day: 14.51021948
mean anomaly at epoch: 240.3704°
orbit number at epoch: 77191

The dashed part of the orbit path shows where the satellite is in the earth's shadow,  

DLR